Terminal Aerodrome Forecast
Issued by NWS

Home | Current Version | Previous Version | Text Only | Print | Product List | Glossary On
Versions: 1 2 3 4 5 6 7 8 9 10 11 12 13 14 15 16 17 18 19 20 21 22 23 24 25 26 27 28 29 30 31 32 33
000
FTPA31 PHFO 181100
TAFLIH
TAF
PHLI 181130Z 1812/1912 07007KT P6SM FEW020 BKN045
     FM182000 07011KT P6SM FEW025 SCT045
     FM190600 07006KT P6SM FEW025 SCT045=

USA.gov is the U.S. government's official web portal to all federal, state and local government web resources and services.